Change the Weather History Date:

Monday, November 5, 2012

  Actual Average Record
Temperature  
Mean Temperature 34 °F -  
Max Temperature 36 °F 43 °F 59 °F (2008)
Min Temperature 32 °F 33 °F 32 °F (2002)
Degree Days  
Heating Degree Days 31    
Moisture  
Dew Point 21 °F    
Average Humidity 56    
Maximum Humidity 70    
Minimum Humidity 36    
Precipitation  
Precipitation 0.00 in 0.09 in - ()
Sea Level Pressure  
Sea Level Pressure 30.20 in    
Wind  
Wind Speed 6 mph ()    
Max Wind Speed 10 mph    
Max Gust Speed -    
Visibility 9.1 miles    
Events      
Averages and records for this station are not official NWS values.
T = Trace of Precipitation, MM = Missing Value Source: Averaged Metar Reports

Daily Weather History Graph

Daily Weather History Graph

Search for Another Location

Airport or City:

Trip Planner

Search our weather history database for the weather conditions in past years. The results will help you decide how hot, cold, wet, or windy it might be!

Date:

Astronomy

Nov. 05, 2012 Rise Set
Actual Time 6:59 AM EST 5:02 PM EST
Civil Twilight 6:28 AM EST 5:32 PM EST
Nautical Twilight 5:54 AM EST 6:06 PM EST
Astronomical Twilight 5:21 AM EST 6:40 PM EST
Moon 10:38 PM EST (11/5) 12:18 PM EST (11/5)
Length of Visible Light 11h 03m
Length of Day
10h 03m
Waning Gibbous, 63% of the Moon is Illuminated
Nov 5
Waning Gibbous
Nov 6
Last Quarter
Nov 13
New
Nov 20
First Quarter
Nov 28
Full

Hourly Weather History & Observations

Time (EST) Temp. Windchill Dew Point Humidity Pressure Visibility Wind Dir Wind Speed Gust Speed Precip Events Conditions
12:00 AM 35.6 °F 29.9 °F 24.8 °F 65% 30.14 in 9.0 mi NNE 6.9 mph - N/A   Overcast
1:00 AM 35 °F - 24 °F 53% 30.14 in 10 mi North 6.9 mph - -   Overcast
1:00 AM 35.6 °F 28.6 °F 24.8 °F 65% 30.14 in 9.0 mi North 9.2 mph - N/A   Overcast
2:00 AM 33.8 °F 27.0 °F 24.8 °F 70% 30.15 in 9.0 mi NW 8.1 mph - N/A   Overcast
3:00 AM 33.8 °F 27.0 °F 24.8 °F 70% 30.15 in 9.0 mi NW 8.1 mph - N/A   Overcast
4:00 AM 35.6 °F 28.0 °F 23.0 °F 60% 30.15 in 9.0 mi North 10.4 mph - N/A   Overcast
5:00 AM 33.8 °F 26.4 °F 21.2 °F 60% 30.17 in 9.0 mi North 9.2 mph - N/A   Overcast
6:00 AM 33.8 °F 26.4 °F 21.2 °F 60% 30.18 in 9.0 mi NE 9.2 mph - N/A   Overcast
7:00 AM 35 °F - 21 °F 44% 30.19 in 10 mi North 5.8 mph - -   Overcast
7:00 AM 33.8 °F 30.8 °F 21.2 °F 60% 30.19 in 9.0 mi NNE 3.5 mph - N/A   Overcast
8:00 AM 33.8 °F 27.0 °F 23.0 °F 65% 30.20 in 9.0 mi NE 8.1 mph - N/A   Overcast
9:00 AM 35.6 °F 30.7 °F 24.8 °F 65% 30.22 in 9.0 mi NNE 5.8 mph - N/A   Overcast
10:00 AM 35.6 °F 30.7 °F 21.2 °F 56% 30.22 in 9.0 mi NNE 5.8 mph - N/A   Overcast
11:00 AM 35.6 °F - 19.4 °F 52% 30.22 in 9.0 mi Calm Calm - N/A   Overcast
12:00 PM 35.6 °F 30.7 °F 21.2 °F 56% 30.22 in 9.0 mi NNW 5.8 mph - N/A   Overcast
1:00 PM 36 °F - 22 °F 43% 30.21 in 10 mi NW 6.9 mph - -   Overcast
1:00 PM 35.6 °F 29.2 °F 21.2 °F 56% 30.21 in 9.0 mi NW 8.1 mph - N/A   Overcast
2:00 PM 35.6 °F 31.7 °F 17.6 °F 48% 30.21 in 9.0 mi North 4.6 mph - N/A   Overcast
3:00 PM 35.6 °F 30.7 °F 17.6 °F 48% 30.20 in 9.0 mi NW 5.8 mph - N/A   Scattered Clouds
4:00 PM 35.6 °F 28.6 °F 19.4 °F 52% 30.20 in 9.0 mi NW 9.2 mph - N/A   Overcast
5:00 PM 35.6 °F 30.7 °F 17.6 °F 48% 30.21 in 9.0 mi West 5.8 mph - N/A   Overcast
6:00 PM 35.6 °F 30.7 °F 17.6 °F 48% 30.22 in 9.0 mi NNW 5.8 mph - N/A   Overcast
7:00 PM 35 °F - 18 °F 36% 30.23 in 10 mi NNW 6.9 mph - -  
7:00 PM 35.6 °F 30.7 °F 17.6 °F 48% 30.23 in 9.0 mi North 5.8 mph - N/A   Mostly Cloudy
8:00 PM 33.8 °F 27.7 °F 19.4 °F 56% 30.23 in 9.0 mi NW 6.9 mph - N/A   Mostly Cloudy
9:00 PM 33.8 °F 29.6 °F 19.4 °F 56% 30.23 in 9.0 mi NW 4.6 mph - N/A   Mostly Cloudy
10:00 PM 32.0 °F 25.6 °F 19.4 °F 60% 30.23 in 9.0 mi WNW 6.9 mph - N/A   Clear
11:00 PM 32.0 °F 24.8 °F 21.2 °F 64% 30.22 in 9.0 mi WNW 8.1 mph - N/A   Clear